Terug naar catalogus

STARLINK-35781

ActiefCommunicatieVLEO
NORAD 67110·PAYLOAD·🇺🇸 United States

Gelanceerd Dec 15, 2025 vanaf Cape Canaveral Space Force Station

Loading…

Volgende Passages (komende 24 uur)

TLE

VersSource: CelesTrak SupGP

Epoch: Sep 14, 2026, 21:31 UTC

1 67110C 25299J   26257.89701389 -.00022875  00000+0 -82835-3 0  2570
2 67110  43.0019 180.7343 0001329 265.5110 316.4494 15.27596433    12

Volg STARLINK-35781 in realtime met AllMySat

Download on the App Store